Overview Statistics Trail Chart Weather Telemetry Raw packets
 

This is the latest recevied weather packets stored in our database for station/object 9W2XPF-13. If no packets are shown the sender has not sent any weather packets the latest 10 day(s).

<< 1 2 3 4 >>
Time Temp. Humidity Pressure Rain* Wind** Luminosity Snow
1777781762 33.33° C 67% 1008.7 hPa 0 mm - - -
1777781642 33.89° C 66% 1008.8 hPa 0 mm - - -
1777781529 33.89° C 65% 1008.8 hPa 0 mm - - -
1777781402 34.44° C 62% 1008.8 hPa 0 mm - - -
1777781282 34.44° C 61% 1009 hPa 0 mm - - -
1777781162 34.44° C 62% 1008.9 hPa 0 mm - - -
1777781042 33.89° C 61% 1008.8 hPa 0 mm - - -
1777780922 33.33° C 63% 1008.8 hPa 0 mm - - -
1777780802 33.33° C 64% 1008.9 hPa 0 mm - - -
1777780682 33.89° C 64% 1008.9 hPa 0 mm - - -
1777780562 33.89° C 64% 1009.2 hPa 0 mm - - -
1777780442 33.89° C 65% 1008.8 hPa 0 mm - - -
1777780322 33.33° C 65% 1009 hPa 0 mm - - -
1777780202 33.33° C 63% 1009 hPa 0 mm - - -
1777780087 33.33° C 65% 1009 hPa 0 mm - - -
1777779962 33.33° C 65% 1009.1 hPa 0 mm - - -
1777779842 33.33° C 64% 1009 hPa 0 mm - - -
1777779722 33.33° C 64% 1009.1 hPa 0 mm - - -
1777779602 33.33° C 65% 1009.3 hPa 0 mm - - -
1777779482 33.33° C 67% 1008.9 hPa 0 mm - - -
1777779362 33.33° C 68% 1009.3 hPa 0 mm - - -
1777779242 33.33° C 67% 1009.2 hPa 0 mm - - -
1777779122 33.33° C 67% 1009.2 hPa 0 mm - - -
1777779002 33.33° C 66% 1009.4 hPa 0 mm - - -
1777778882 33.33° C 67% 1009.4 hPa 0 mm - - -

* Rain latest hour (hover to see other rain measurements)
** Current wind speed in m/s (hover to see current wind gust speed)